TimeEET,TemperatureF,Dew PointF,Humidity,Sea Level PressureIn,VisibilityMPH,Wind Direction,Wind SpeedMPH,Gust SpeedMPH,PrecipitationIn,Events,Conditions,WindDirDegrees,DateUTC
12:00 AM,62.6,41.0,45,29.92,-9999.0,Calm,Calm,-,N/A,,Clear,0,2013-02-14 22:00:00
1:00 AM,64.4,41.0,42,29.92,-9999.0,Calm,Calm,-,N/A,,Clear,0,2013-02-14 23:00:00
2:00 AM,63,38,28,29.91,6,WNW,8.1,,,,,300,2013-02-15 00:00:00
2:00 AM,62.6,37.4,39,29.89,-9999.0,NNE,8.1,-,N/A,,Clear,30,2013-02-15 00:00:00
3:00 AM,62.6,37.4,39,29.89,-9999.0,NNW,5.8,-,N/A,,Clear,330,2013-02-15 01:00:00
4:00 AM,60.8,35.6,39,29.92,-9999.0,NW,10.4,-,N/A,,Clear,310,2013-02-15 02:00:00
5:00 AM,59.0,35.6,42,29.92,-9999.0,NW,9.2,-,N/A,,Clear,310,2013-02-15 03:00:00
6:00 AM,57.2,28.4,33,29.95,-9999.0,WNW,6.9,-,N/A,,Clear,290,2013-02-15 04:00:00
7:00 AM,59.0,26.6,29,29.95,-9999.0,NW,9.2,-,N/A,,Clear,310,2013-02-15 05:00:00
8:00 AM,64,25,13,29.99,6,NW,13.8,,,,Partly Cloudy,310,2013-02-15 06:00:00
8:00 AM,64.4,24.8,22,29.98,-9999.0,NW,13.8,-,N/A,,Clear,310,2013-02-15 06:00:00
9:00 AM,71.6,35.6,27,29.98,-9999.0,North,13.8,-,N/A,,Clear,350,2013-02-15 07:00:00
10:00 AM,73.4,35.6,25,30.01,2.5,North,25.3,-,N/A,,Sand,350,2013-02-15 08:00:00
11:00 AM,75.2,35.6,24,30.01,2.5,North,25.3,-,N/A,,Sand,360,2013-02-15 09:00:00
12:00 PM,75.2,32.0,21,30.01,2.5,North,27.6,-,N/A,,Sand,360,2013-02-15 10:00:00
1:00 PM,75.2,44.6,34,29.98,2.5,North,25.3,-,N/A,,Sand,350,2013-02-15 11:00:00
2:00 PM,75.2,42.8,31,29.98,2.5,North,25.3,-,N/A,,Sand,10,2013-02-15 12:00:00
3:00 PM,73.4,42.8,33,29.98,3.7,North,27.6,-,N/A,,Unknown,350,2013-02-15 13:00:00
4:00 PM,71.6,37.4,29,29.98,5.0,North,27.6,-,N/A,,Unknown,360,2013-02-15 14:00:00
5:00 PM,69.8,35.6,28,30.01,-9999.0,North,23.0,-,N/A,,Clear,350,2013-02-15 15:00:00
6:00 PM,68.0,30.2,24,30.04,-9999.0,North,18.4,-,N/A,,Clear,350,2013-02-15 16:00:00
7:00 PM,68.0,35.6,30,30.04,-9999.0,NNW,13.8,-,N/A,,Clear,340,2013-02-15 17:00:00
8:00 PM,67,34,18,30.07,6,NNW,16.1,,,,Clear,330,2013-02-15 18:00:00
8:00 PM,66.2,33.8,30,30.06,-9999.0,NNW,16.1,-,N/A,,Clear,330,2013-02-15 18:00:00
9:00 PM,66.2,28.4,24,30.09,-9999.0,NW,17.3,-,N/A,,Clear,320,2013-02-15 19:00:00
10:00 PM,62.6,30.2,30,30.09,-9999.0,NW,15.0,-,N/A,,Clear,320,2013-02-15 20:00:00
11:00 PM,62.6,28.4,27,30.09,-9999.0,WNW,10.4,-,N/A,,Clear,300,2013-02-15 21:00:00